FW8483 Weather Reports


time (UTC)temp
C
wind
direction
speed
KPH
gust
KPH
rain 1hr
cm
rain 24hr
cm
rain mn
cm
humidity
%
barometer
mb
20260831030512 25 11 0.0 0.0 0.00 0.15 0.10 89 1017.8
20260831030007 25 92 0.0 0.0 0.00 0.15 0.10 90 1017.8
20260831025502 25 92 0.0 0.0 0.00 0.15 0.10 89 1017.7
20260831025004 25 92 0.0 0.0 0.00 0.15 0.10 90 1017.9
20260831024510 25 92 0.0 0.0 0.00 0.15 0.10 89 1017.9
20260831024007 25 92 0.0 0.0 0.00 0.15 0.10 89 1017.9
20260831023504 25 92 0.0 0.0 0.00 0.15 0.10 90 1017.8
20260831023017 25 92 0.0 0.0 0.00 0.15 0.10 90 1017.8
20260831022510 25 92 0.0 0.0 0.00 0.18 0.10 90 1017.8
20260831022009 25 92 0.0 0.0 0.00 0.18 0.10 90 1017.8
20260831021525 26 92 0.0 0.0 0.00 0.18 0.10 89 1017.8
20260831021011 26 92 0.0 0.0 0.00 0.18 0.10 89 1017.7
20260831020512 26 92 0.0 0.0 0.00 0.18 0.10 89 1017.7
20260831020027 26 92 0.0 0.0 0.00 0.18 0.10 89 1017.7
20260831015513 26 92 0.0 0.0 0.00 0.18 0.10 89 1017.7
20260831015003 26 92 0.0 3.2 0.00 0.20 0.10 88 1017.7
20260831014508 26 92 0.0 4.8 0.00 0.20 0.10 88 1017.6
20260831014005 26 114 1.6 4.8 0.00 0.20 0.10 88 1017.5
20260831013504 26 90 0.0 3.2 0.00 0.20 0.10 88 1017.4
20260831013014 26 130 0.0 3.2 0.00 0.20 0.10 88 1017.4
20260831012508 26 130 0.0 3.2 0.00 0.20 0.10 87 1017.5
20260831012007 26 130 1.6 3.2 0.00 0.23 0.10 86 1017.3
20260831011527 27 123 0.0 0.0 0.00 0.23 0.10 86 1017.2
20260831011012 27 123 0.0 0.0 0.00 0.23 0.10 85 1017.3
20260831010517 27 171 0.0 4.8 0.00 0.25 0.10 84 1017.4
20260831010035 27 171 0.0 6.4 0.00 0.25 0.10 83 1017.3
20260831005514 27 170 1.6 11.3 0.00 0.25 0.10 83 1017.4
20260831005014 27 166 3.2 11.3 0.00 0.25 0.10 82 1017.4
20260831004508 27 165 6.4 11.3 0.00 0.28 0.10 81 1017.4
20260831004003 27 167 1.6 11.3 0.00 0.28 0.10 82 1017.4
20260831003505 27 196 3.2 8.0 0.00 0.28 0.10 82 1017.4
20260831003013 27 178 1.6 4.8 0.00 0.28 0.10 82 1017.4
20260831002507 27 185 1.6 6.4 0.00 0.30 0.10 82 1017.3
20260831002007 28 143 1.6 9.7 0.00 0.30 0.10 81 1017.4
20260831001517 28 160 4.8 9.7 0.00 0.30 0.10 81 1017.2
20260831001013 28 166 4.8 9.7 0.00 0.30 0.10 79 1017.3
20260831000512 28 123 4.8 12.9 0.00 0.33 0.10 79 1017.2
20260831000028 29 171 4.8 12.9 0.00 0.33 0.10 78 1017.1
20260830235512 29 66 0.0 0.0 0.00 0.33 0.10 78 1016.9
20260830235016 30 66 0.0 4.8 0.00 0.33 0.10 78 1016.7
20260830234543 30 61 0.0 4.8 0.00 0.33 0.10 77 1016.5
20260830234018 30 60 1.6 6.4 0.00 0.33 0.10 75 1016.4
20260830233505 30 49 0.0 6.4 0.00 0.33 0.10 75 1016.4
20260830233011 30 41 1.6 6.4 0.00 0.33 0.10 74 1016.3
20260830232506 30 55 1.6 6.4 0.00 0.33 0.10 74 1016.4
20260830232009 30 34 1.6 4.8 0.00 0.33 0.10 74 1016.3
20260830231517 30 24 1.6 6.4 0.00 0.33 0.10 73 1016.3
20260830231012 30 49 0.0 6.4 0.00 0.33 0.10 73 1016.3
20260830230510 30 27 1.6 6.4 0.00 0.33 0.10 73 1016.3
20260830230028 30 51 0.0 4.8 0.00 0.33 0.10 74 1016.2
20260830225513 30 36 1.6 3.2 0.00 0.33 0.10 74 1016.2
20260830225012 30 5 1.6 4.8 0.00 0.33 0.10 74 1016.2
20260830224527 30 17 1.6 4.8 0.00 0.33 0.10 72 1016.2
20260830224015 30 11 0.0 4.8 0.00 0.33 0.10 74 1016.2
20260830223516 30 24 0.0 4.8 0.00 0.33 0.10 73 1016.2
20260830223043 30 15 0.0 4.8 0.00 0.33 0.10 73 1016.2
20260830222502 31 34 1.6 4.8 0.00 0.33 0.10 72 1016.1
20260830222007 31 35 0.0 3.2 0.00 0.33 0.10 72 1016.1
20260830221525 31 36 0.0 6.4 0.00 0.33 0.10 71 1016.1
20260830221010 31 20 3.2 8.0 0.00 0.33 0.10 69 1016.0
20260830220509 31 42 1.6 12.9 0.00 0.33 0.10 67 1016.0
20260830220024 31 76 4.8 12.9 0.00 0.33 0.10 68 1016.0
20260830215509 31 20 3.2 9.7 0.00 0.33 0.10 68 1016.0
20260830215014 31 44 3.2 9.7 0.00 0.33 0.10 67 1016.0
20260830214530 31 14 3.2 12.9 0.00 0.33 0.10 68 1016.0
20260830214015 31 76 4.8 12.9 0.00 0.33 0.10 67 1016.0
20260830213514 31 87 4.8 11.3 0.00 0.33 0.10 68 1016.0
20260830213032 31 81 3.2 11.3 0.00 0.33 0.10 69 1016.0
20260830212518 31 42 3.2 8.0 0.00 0.33 0.10 67 1016.1
20260830212016 31 360 6.4 8.0 0.00 0.33 0.10 68 1016.2
20260830211514 31 31 3.2 6.4 0.00 0.33 0.10 71 1016.2
20260830211008 31 352 3.2 17.7 0.00 0.33 0.10 68 1016.2
20260830210509 32 5 6.4 17.7 0.00 0.33 0.10 66 1016.2
20260830210016 32 49 8.0 14.5 0.00 0.33 0.10 62 1016.2
20260830205512 32 88 6.4 12.9 0.00 0.33 0.10 63 1016.3
20260830205013 32 58 0.0 16.1 0.00 0.33 0.10 60 1016.4
20260830204536 32 82 6.4 16.1 0.00 0.33 0.10 60 1016.4
20260830204013 32 63 6.4 17.7 0.00 0.33 0.10 66 1016.4
20260830203503 32 94 6.4 17.7 0.00 0.33 0.10 62 1016.4
20260830203006 32 64 11.3 16.1 0.00 0.33 0.10 61 1016.4
20260830202504 32 94 12.9 16.1 0.00 0.33 0.10 64 1016.5
20260830202004 32 73 4.8 16.1 0.00 0.33 0.10 66 1016.5
20260830201511 32 69 9.7 16.1 0.00 0.33 0.10 65 1016.6
20260830201010 31 98 8.0 16.1 0.00 0.33 0.10 66 1016.6
20260830200507 31 101 1.6 12.9 0.00 0.33 0.10 65 1016.7
20260830200015 31 80 3.2 12.9 0.00 0.33 0.10 63 1016.6
20260830195509 31 78 4.8 11.3 0.00 0.33 0.10 65 1016.8
20260830195010 31 86 4.8 14.5 0.00 0.33 0.10 65 1016.8
20260830194524 31 115 6.4 14.5 0.00 0.33 0.10 64 1016.9
20260830194015 31 94 4.8 16.1 0.00 0.33 0.10 65 1017.0
20260830193514 31 111 9.7 16.1 0.00 0.33 0.10 66 1017.0
20260830193031 31 103 9.7 14.5 0.00 0.33 0.10 68 1017.1
20260830192502 31 87 6.4 11.3 0.00 0.33 0.10 70 1017.1
20260830192002 31 102 1.6 4.8 0.00 0.33 0.10 71 1017.4
20260830191508 30 75 1.6 6.4 0.00 0.33 0.10 74 1017.6
20260830191004 30 96 1.6 8.0 0.00 0.33 0.10 74 1017.7
20260830190508 30 78 1.6 12.9 0.00 0.33 0.10 73 1017.9
20260830190019 30 91 4.8 12.9 0.00 0.33 0.10 70 1017.9
20260830185507 30 63 3.2 12.9 0.00 0.33 0.10 71 1017.8
20260830185009 31 29 4.8 12.9 0.00 0.33 0.10 72 1017.9
20260830184523 31 53 1.6 14.5 0.00 0.33 0.10 71 1017.9
20260830184011 31 45 6.4 14.5 0.00 0.33 0.10 69 1018.0
20260830183513 31 74 8.0 14.5 0.00 0.33 0.10 70 1018.0
20260830183028 31 25 6.4 16.1 0.00 0.33 0.10 66 1018.1
20260830182514 31 80 4.8 16.1 0.00 0.33 0.10 67 1018.1
20260830182015 31 82 9.7 16.1 0.00 0.33 0.10 67 1018.1
20260830181507 31 149 4.8 16.1 0.00 0.33 0.10 68 1018.3
20260830181003 31 131 9.7 19.3 0.00 0.33 0.10 66 1018.3
20260830180506 31 107 14.5 19.3 0.00 0.33 0.10 66 1018.2
20260830180017 31 140 9.7 17.7 0.00 0.33 0.10 70 1018.3
20260830175506 31 74 6.4 16.1 0.00 0.33 0.10 68 1018.3
20260830175013 30 63 9.7 16.1 0.00 0.33 0.10 69 1018.4
20260830174520 31 88 8.0 12.9 0.00 0.33 0.10 70 1018.4
20260830174008 31 124 6.4 16.1 0.00 0.33 0.10 69 1018.5
20260830173515 31 71 8.0 16.1 0.00 0.33 0.10 70 1018.5
20260830173025 31 122 8.0 17.7 0.00 0.33 0.10 69 1018.5
20260830172514 31 110 4.8 17.7 0.00 0.33 0.10 68 1018.5
20260830172014 30 168 3.2 19.3 0.00 0.33 0.10 71 1018.5
20260830171531 30 121 14.5 19.3 0.00 0.33 0.10 69 1018.6
20260830171004 30 98 14.5 17.7 0.00 0.33 0.10 70 1018.6
20260830170502 30 96 9.7 19.3 0.00 0.33 0.10 71 1018.6
20260830170010 30 138 9.7 25.7 0.00 0.33 0.10 72 1018.7
20260830165502 30 61 16.1 25.7 0.00 0.33 0.10 71 1018.9
20260830165006 30 80 8.0 24.1 0.00 0.33 0.10 70 1018.9
20260830164541 30 125 14.5 24.1 0.00 0.33 0.10 70 1019.2
20260830164011 30 76 6.4 16.1 0.00 0.33 0.10 72 1019.3
20260830163508 30 83 8.0 16.1 0.00 0.33 0.10 75 1019.4
20260830163025 30 74 8.0 17.7 0.00 0.33 0.10 73 1019.4
20260830162511 30 113 12.9 17.7 0.00 0.33 0.10 74 1019.5
20260830162013 30 97 6.4 19.3 0.00 0.33 0.10 73 1019.5
20260830161528 30 99 11.3 19.3 0.00 0.33 0.10 74 1019.6
20260830161014 30 101 9.7 16.1 0.00 0.33 0.10 76 1019.6
20260830160519 29 49 8.0 16.1 0.00 0.33 0.10 75 1019.7
20260830160009 29 138 11.3 16.1 0.00 0.33 0.10 77 1019.7
20260830155508 29 142 9.7 16.1 0.00 0.33 0.10 75 1019.7
20260830155007 29 82 11.3 16.1 0.00 0.33 0.10 77 1019.7
20260830154524 29 84 9.7 16.1 0.00 0.33 0.10 76 1019.8
20260830154008 28 89 11.3 17.7 0.00 0.33 0.10 79 1019.7
20260830153509 28 86 9.7 17.7 0.00 0.33 0.10 79 1019.7
20260830153023 28 112 11.3 16.1 0.00 0.33 0.10 80 1019.7
20260830152510 28 82 9.7 16.1 0.00 0.33 0.10 80 1019.7
20260830152013 28 104 9.7 14.5 0.00 0.33 0.10 79 1019.8
20260830151528 28 90 8.0 14.5 0.00 0.33 0.10 79 1019.7
20260830151013 28 93 9.7 16.1 0.00 0.33 0.10 81 1019.5
20260830150517 28 84 6.4 16.1 0.00 0.33 0.10 81 1019.6
20260830150037 27 96 9.7 16.1 0.00 0.33 0.10 82 1019.5
20260830145516 27 100 9.7 16.1 0.00 0.33 0.10 81 1019.5
20260830145006 27 113 9.7 14.5 0.00 0.33 0.10 81 1019.7
20260830144514 27 98 4.8 14.5 0.00 0.33 0.10 84 1019.6
20260830144007 27 63 8.0 14.5 0.00 0.33 0.10 85 1019.5
20260830143506 27 79 6.4 14.5 0.00 0.33 0.10 86 1019.5
20260830143019 26 70 9.7 14.5 0.00 0.33 0.10 86 1019.5
20260830142514 26 96 6.4 14.5 0.00 0.33 0.10 87 1019.4
20260830142012 26 88 8.0 17.7 0.00 0.33 0.10 88 1019.5
20260830141527 26 111 11.3 17.7 0.00 0.33 0.10 88 1019.5
20260830141011 26 81 12.9 16.1 0.00 0.33 0.10 88 1019.5
20260830140517 26 52 9.7 16.1 0.00 0.33 0.10 88 1019.5
20260830140030 26 40 4.8 12.9 0.00 0.33 0.10 89 1019.6
20260830135517 25 96 6.4 12.9 0.00 0.33 0.10 90 1019.5
20260830135017 25 121 6.4 12.9 0.00 0.33 0.10 90 1019.4
20260830134534 25 55 6.4 12.9 0.00 0.33 0.10 91 1019.5
20260830134008 24 92 4.8 9.7 0.00 0.33 0.10 91 1019.5
20260830133509 24 69 6.4 9.7 0.00 0.33 0.10 92 1019.5
20260830133023 24 62 1.6 6.4 0.00 0.33 0.10 93 1019.4
20260830132508 23 65 1.6 6.4 0.00 0.33 0.10 94 1019.5
20260830132011 23 52 0.0 6.4 0.00 0.33 0.10 94 1019.4
20260830131536 23 58 1.6 6.4 0.00 0.33 0.10 94 1019.5
20260830131014 23 63 1.6 6.4 0.00 0.33 0.10 95 1019.5
20260830130517 23 74 1.6 6.4 0.00 0.33 0.10 95 1019.4
20260830130028 23 49 1.6 9.7 0.00 0.33 0.10 95 1019.4
20260830125515 23 76 4.8 9.7 0.00 0.33 0.10 95 1019.4
20260830125017 23 80 4.8 8.0 0.00 0.33 0.10 96 1019.2
20260830124531 23 86 4.8 8.0 0.00 0.33 0.10 96 1019.1
20260830124017 23 111 1.6 4.8 0.00 0.33 0.10 97 1019.0
20260830123510 22 92 1.6 4.8 0.00 0.33 0.10 97 1019.0
20260830123016 22 46 0.0 6.4 0.03 0.36 0.10 97 1019.0
20260830122508 22 47 1.6 6.4 0.03 0.36 0.10 97 1019.0
20260830122009 22 90 3.2 4.8 0.03 0.36 0.10 97 1018.9
20260830121522 22 61 3.2 4.8 0.03 0.36 0.10 97 1018.9
20260830121010 22 34 0.0 4.8 0.03 0.36 0.10 97 1018.8
20260830120514 22 75 1.6 4.8 0.03 0.36 0.10 97 1018.8
20260830120031 22 51 1.6 4.8 0.03 0.36 0.10 97 1018.8
20260830115516 22 76 1.6 4.8 0.03 0.36 0.10 97 1018.9
20260830115007 22 82 1.6 4.8 0.03 0.36 0.10 97 1018.9
20260830114509 22 74 1.6 6.4 0.03 0.36 0.10 97 1018.8
20260830114006 22 54 0.0 6.4 0.03 0.36 0.10 97 1018.7
20260830113509 22 65 1.6 4.8 0.03 0.36 0.10 97 1018.6
20260830113015 22 71 1.6 4.8 0.00 0.33 0.08 97 1018.7
20260830112509 22 46 0.0 4.8 0.00 0.33 0.08 97 1018.6
20260830112008 22 33 1.6 4.8 0.00 0.33 0.08 97 1018.5
20260830111523 22 51 0.0 3.2 0.00 0.33 0.08 97 1018.4
20260830111012 22 56 0.0 3.2 0.00 0.33 0.08 97 1018.4
20260830110512 22 61 1.6 3.2 0.00 0.33 0.08 97 1018.4
20260830110031 22 41 0.0 4.8 0.00 0.33 0.08 97 1018.4
20260830105514 22 16 0.0 4.8 0.00 0.33 0.08 97 1018.2
20260830105015 22 21 1.6 4.8 0.00 0.33 0.08 97 1018.1
20260830104533 22 48 1.6 4.8 0.00 0.33 0.08 97 1018.0
20260830104004 22 34 1.6 4.8 0.00 0.33 0.08 97 1018.0
20260830103504 22 42 1.6 4.8 0.00 0.33 0.08 97 1017.8
20260830103021 22 28 0.0 4.8 0.00 0.33 0.08 97 1017.8
20260830102504 22 74 0.0 4.8 0.00 0.33 0.08 97 1017.7
20260830102004 22 71 0.0 4.8 0.00 0.33 0.08 97 1017.8
20260830101520 22 34 1.6 4.8 0.00 0.33 0.08 97 1017.8
20260830101013 22 67 1.6 4.8 0.00 0.33 0.08 97 1017.7
20260830100510 22 24 1.6 4.8 0.00 0.33 0.08 97 1017.6
20260830100028 22 83 1.6 6.4 0.00 0.33 0.08 97 1017.7
20260830095516 22 49 0.0 8.0 0.00 0.33 0.08 97 1017.7
20260830095014 22 36 0.0 8.0 0.03 0.33 0.08 97 1017.7
20260830094530 22 59 3.2 9.7 0.03 0.33 0.08 97 1017.6
20260830094013 22 69 3.2 9.7 0.03 0.33 0.08 97 1017.6
20260830093501 22 90 3.2 9.7 0.03 0.33 0.08 97 1017.6
20260830093010 22 70 4.8 9.7 0.03 0.33 0.08 97 1017.6
20260830092506 22 80 3.2 6.4 0.03 0.33 0.08 97 1017.5
20260830092007 22 81 0.0 8.0 0.03 0.33 0.08 97 1017.5
20260830091519 22 28 3.2 8.0 0.03 0.33 0.08 97 1017.6
20260830091009 22 115 4.8 8.0 0.03 0.33 0.08 97 1017.7
20260830090510 22 75 4.8 6.4 0.03 0.33 0.08 97 1017.7
20260830090026 22 120 3.2 4.8 0.03 0.33 0.08 97 1017.7
20260830085512 22 73 3.2 4.8 0.03 0.33 0.08 97 1017.7
20260830085016 22 45 1.6 4.8 0.00 0.30 0.05 97 1017.7
20260830084528 22 76 0.0 4.8 0.00 0.30 0.05 97 1017.6
20260830084015 22 38 1.6 4.8 0.00 0.30 0.05 97 1017.6
20260830083517 22 51 0.0 3.2 0.00 0.30 0.05 97 1017.5
20260830083036 22 67 0.0 3.2 0.00 0.30 0.05 97 1017.5
20260830082507 22 65 1.6 3.2 0.00 0.30 0.05 97 1017.4
20260830082005 22 35 0.0 0.0 0.00 0.30 0.05 97 1017.4
20260830081517 22 30 0.0 0.0 0.00 0.30 0.05 97 1017.4
20260830081008 22 42 0.0 1.6 0.00 0.30 0.05 97 1017.4
20260830080511 22 41 0.0 1.6 0.03 0.30 0.05 97 1017.4
20260830080025 22 38 0.0 0.0 0.03 0.30 0.05 97 1017.6
20260830075512 22 61 0.0 0.0 0.03 0.30 0.05 97 1017.6
20260830075012 22 28 0.0 0.0 0.03 0.30 0.05 97 1017.5
20260830074528 22 76 0.0 0.0 0.03 0.30 0.05 97 1017.6
20260830074013 22 76 0.0 0.0 0.03 0.30 0.05 97 1017.7
20260830073514 22 76 0.0 0.0 0.03 0.30 0.05 97 1017.6
20260830073031 22 76 0.0 0.0 0.03 0.30 0.05 97 1017.6
20260830072517 22 27 0.0 0.0 0.03 0.30 0.05 97 1017.7
20260830072015 22 27 0.0 0.0 0.03 0.30 0.05 97 1017.7
20260830071517 22 27 0.0 0.0 0.03 0.30 0.05 97 1017.7
20260830071007 22 27 0.0 0.0 0.03 0.30 0.05 97 1017.7
20260830070506 22 27 0.0 3.2 0.00 0.28 0.03 97 1017.7
20260830070023 22 27 0.0 3.2 0.00 0.28 0.03 97 1017.7
20260830065512 22 332 0.0 0.0 0.00 0.28 0.03 97 1017.7
20260830065011 22 332 0.0 0.0 0.03 0.28 0.03 96 1017.7
20260830064526 22 332 0.0 0.0 0.03 0.28 0.03 96 1017.8
20260830064012 22 332 0.0 0.0 0.03 0.28 0.03 96 1017.8
20260830063514 22 332 0.0 3.2 0.03 0.28 0.03 97 1017.7
20260830063031 22 331 0.0 4.8 0.03 0.28 0.03 97 1017.7
20260830062516 22 342 3.2 4.8 0.03 0.28 0.03 97 1017.6
20260830062014 22 342 3.2 4.8 0.03 0.28 0.03 96 1017.6
20260830061532 22 330 3.2 4.8 0.03 0.28 0.03 96 1017.7
20260830061018 22 329 1.6 4.8 0.03 0.28 0.03 96 1017.7
20260830060506 22 313 3.2 6.4 0.03 0.28 0.03 96 1017.8
20260830060016 22 320 4.8 6.4 0.03 0.28 0.03 96 1017.8
20260830055509 23 327 0.0 3.2 0.03 0.28 0.03 96 1017.9
20260830055010 23 313 0.0 0.0 0.00 0.25 0.00 96 1017.9
20260830054528 23 313 0.0 0.0 0.00 0.25 0.00 96 1017.9
20260830054013 23 76 0.0 0.0 0.00 0.25 0.00 97 1018.1
20260830053514 23 76 0.0 0.0 0.00 0.25 0.00 97 1018.2
20260830053030 23 76 0.0 0.0 0.03 0.25 0.00 97 1018.3
20260830052514 23 76 0.0 0.0 0.03 0.25 0.00 97 1018.4
20260830052013 23 76 0.0 0.0 0.03 0.25 0.00 97 1018.4
20260830051542 23 76 0.0 0.0 0.03 0.25 0.00 97 1018.5
20260830051018 23 76 0.0 0.0 0.03 0.25 0.00 97 1018.5
20260830050519 23 76 0.0 0.0 0.03 0.25 0.00 96 1018.7
20260830050032 23 76 0.0 0.0 0.03 0.25 0.00 96 1018.7
20260830045508 23 76 0.0 0.0 0.03 0.25 0.25 97 1018.8
20260830045008 23 76 0.0 0.0 0.03 0.25 0.25 97 1018.8
20260830044523 23 76 0.0 0.0 0.03 0.25 0.25 97 1018.9
20260830044015 23 76 0.0 0.0 0.03 0.25 0.25 96 1019.2
20260830043512 23 76 0.0 0.0 0.03 0.25 0.25 97 1019.2
20260830043028 23 76 0.0 0.0 0.03 0.23 0.23 96 1019.2
20260830042514 23 76 0.0 0.0 0.03 0.23 0.23 96 1019.3
20260830042015 23 76 0.0 0.0 0.03 0.23 0.23 96 1019.4
20260830041535 23 76 0.0 0.0 0.03 0.23 0.23 96 1019.4
20260830041016 23 76 0.0 0.0 0.03 0.23 0.23 96 1019.4
20260830040516 23 76 0.0 0.0 0.03 0.23 0.23 96 1019.3
20260830040038 23 76 0.0 0.0 0.03 0.23 0.23 96 1019.3
20260830035518 23 76 0.0 0.0 0.03 0.23 0.23 96 1019.2
20260830035017 23 76 0.0 0.0 0.03 0.23 0.23 96 1019.3
20260830034523 23 76 0.0 0.0 0.03 0.23 0.23 96 1019.3
20260830034012 23 74 0.0 0.0 0.03 0.23 0.23 97 1019.3
20260830033511 23 73 0.0 3.2 0.03 0.23 0.23 96 1019.2
20260830033026 23 73 0.0 3.2 0.00 0.20 0.20 96 1019.2
20260830032512 23 70 0.0 3.2 0.03 0.20 0.20 96 1019.2
20260830032013 23 80 0.0 0.0 0.03 0.20 0.20 96 1019.2
20260830031532 23 21 0.0 0.0 0.03 0.20 0.20 97 1019.2
20260830031018 23 21 0.0 0.0 0.03 0.20 0.20 97 1019.3